Regional Weather Roundup
Issued by NWS

Home | Current Version | Previous Version | Text Only | Print | Product List | Glossary On
Versions: 1 2 3 4 5 6 7 8 9 10 11 12 13 14 15 16 17 18 19 20 21 22 23 24 25 26 27 28 29 30 31 32 33 34 35 36 37 38 39 40 41 42 43 44 45 46 47 48 49 50
860
ASUS43 KIND 251709
RWRIN

WEATHER ROUNDUP FOR INDIANA
NATIONAL WEATHER SERVICE INDIANAPOLIS IN
100 PM EDT WED MAY 25 2016

NOTE: "FAIR" INDICATES FEW OR NO CLOUDS BELOW 12,000 FEET WITH NO
SIGNIFICANT WEATHER AND/OR OBSTRUCTIONS TO VISIBILITY.

* - STATION DOES NOT REPORT WEATHER SUCH AS PRECIPITATION OR FOG.

+ - STATION NOT QUALITY CONTROLLED BY THE NATIONAL WEATHER SERVICE.
    USE DATA WITH CAUTION...ESPECIALLY DEWPOINT AND RELATIVE
    HUMIDITY OBSERVATIONS.

INZ001>003-010>013-019-020-251800-
NORTHWEST INDIANA

CITY           SKY/WX    TMP DP  RH WIND       PRES   REMARKS
GARY /AIRPORT/ PTSUNNY   82  68  61 S8        30.01S
KNOX *+        SUNNY     81  45  28 SW9G20    30.01F
LA PORTE +     SUNNY     83  60  45 S8G16     30.02F
MICHIGAN CITY+ MOSUNNY   81  61  50 S10       30.02R
MONTICELLO +   SUNNY     81  55  40 S7        30.02S
RENSSELAER +   SUNNY     81  57  44 S12       30.02S
VALPARAISO     SUNNY     82  60  47 S14       30.02S

$$

LMZ046-743>745-251800-
SOUTHERN LAKE MICHIGAN

STATION/POSITION TIME  TEMP    WIND        PRES    WAVE
                       AIR SEA DIR/SP/G            HT
                 (UTC) (F)     (DEG/KT/KT) (MB)    (FT)
BURNS HARBOR     1600   79     180/  9/ 15 1016.3F
MICHIGAN CITY    1600   76     180/  8/ 11   N/A
5NW MICH CITY    1700   72 60  210/  2/  4   N/A     1

$$

INZ004-005-014>016-021>024-251800-
NORTH CENTRAL INDIANA

CITY           SKY/WX    TMP DP  RH WIND       PRES   REMARKS
ELKHART        PTSUNNY   81  66  61 S9G17     30.03F
GOSHEN         MOSUNNY   81  59  47 S13G28    30.03F
LOGANSPORT +   SUNNY     81  59  47 S14       30.05S
PERU/GRISSOM   SUNNY     81  62  52 S12G20    30.04S
ROCHESTER +    SUNNY     82  61  47 SE8       30.04F
SOUTH BEND     MOSUNNY   81  60  48 SW10G18   30.03S
WARSAW +       SUNNY     81  61  50 S9        30.04F

$$

INZ006>009-017-018-025>027-251800-
NORTHEAST INDIANA

CITY           SKY/WX    TMP DP  RH WIND       PRES   REMARKS
ANGOLA *+      MOSUNNY   81  63  54 S7        30.06F
AUBURN +       SUNNY     81  57  44 S8        30.07F
FORT WAYNE     MOSUNNY   80  59  48 S9        30.07F
HUNTINGTON +   SUNNY    N/A N/A N/A S8        30.05F

$$

INZ028-029-035-036-043>045-051>053-251800-
WEST CENTRAL INDIANA

CITY           SKY/WX    TMP DP  RH WIND       PRES   REMARKS
CRAWFORDSVL +  PTSUNNY   80  63  55 SW15G23   30.06S
GREENCASTLE +  PTSUNNY   79  66  65 S7        30.08S
LAFAYETTE      SUNNY     79  60  52 SW8G18    30.02F
TERRE HAUTE    CLOUDY    80  63  55 S16       30.06S

$$

INZ030>032-037>040-046>048-054>057-064-065-251800-
CENTRAL INDIANA

CITY           SKY/WX    TMP DP  RH WIND       PRES   REMARKS
ANDERSON       MOSUNNY   81  61  50 SW12      30.09S
CP ATTERBURY + MOSUNNY   79  63  57 S7        30.09S
COLUMBUS       CLOUDY    77  64  65 SW8       30.09S
FISHERS *+     SUNNY     81  64  57 S12G17    30.07S
FRANKFORT +      N/A     82  45  27 SW13G24   30.06F
GREENWOOD *+   SUNNY     81  59  47 SW12      30.08S
INDIANAPOLIS   MOSUNNY   81  61  50 S17       30.05S
-EAGLE CREEK   MOSUNNY   81  61  50 S12G20    30.06S
KOKOMO *+      MOSUNNY   81  61  50 SW14G20   30.05S
MARION +       MOSUNNY   80  59  47 SW16      30.07S
SHELBYVILLE    MOSUNNY   83  60  45 S12       30.08S
ZIONSVILLE +   MOSUNNY   80  60  50 S17       30.07F

$$

INZ033-034-041-042-049-050-058-059-251800-
EAST CENTRAL INDIANA

CITY           SKY/WX    TMP DP  RH WIND       PRES   REMARKS
MUNCIE         SUNNY     83  58  42 SW7       30.07F

$$

INZ060-061-067>069-081>083-085>088-251800-
SOUTHWEST INDIANA

CITY           SKY/WX    TMP DP  RH WIND       PRES   REMARKS
EVANSVILLE     CLOUDY    74  64  71 SW16      30.11R
HUNTINGBURG *+ CLOUDY    79  64  61 SW8       30.10F
WASHINGTON +   MOSUNNY   81  65  58 S9        30.08S

$$

INZ062-063-066-070>080-084-089>092-251800-
SOUTH CENTRAL AND SOUTHEAST INDIANA

CITY           SKY/WX    TMP DP  RH WIND       PRES   REMARKS
BEDFORD +      MOSUNNY   81  70  69 SW10      30.09R
BLOOMINGTON    CLOUDY    81  59  47 SW9G18    30.09R
MADISON *+     CLOUDY    77  59  53 S8        30.14S
NORTH VERNON + MOSUNNY   82  68  61 CALM      30.11R
SEYMOUR +      PTSUNNY   84  63  48 S10       30.08S

$$





USA.gov is the U.S. government's official web portal to all federal, state and local government web resources and services.